Location: Unspecified
(40.9447°N, 78.9903°W)
Time: 08:30:47
(UTC-04:00)

Cosmos 2058 - Pass Details

Date: 26 July 2021
Orbit: 560 x 584 km, 82.5° (Epoch: 16 September)

Event Time Altitude Azimuth Distance (km) Brightness Sun altitude
Rises 21:53:58 0° 200° (SSW) 2,770 6.2 -12.9°
Reaches altitude 10° 21:56:11 10° 205° (SSW) 1,881 5.4 -13.2°
Maximum altitude 22:00:13 48° 281° (W) 759 3.9 -13.7°
Drops below altitude 10° 22:04:18 10° 356° (N) 1,907 6.2 -14.3°
Sets 22:06:34 0° 3° (N) 2,814 7.1 -14.6°
